TimeCST,TemperatureF,Dew PointF,Humidity,Sea Level PressureIn,VisibilityMPH,Wind Direction,Wind SpeedMPH,Gust SpeedMPH,PrecipitationIn,Events,Conditions,WindDirDegrees,DateUTC
12:53 AM,-0.0,-7.1,72,30.53,4.0,North,23.0,28.8,0.00,,Overcast,360,2014-02-05 06:53:00
1:53 AM,-0.0,-8.0,69,30.54,5.0,North,18.4,-,0.00,,Overcast,360,2014-02-05 07:53:00
2:53 AM,-0.0,-8.0,69,30.56,4.0,North,20.7,-,0.00,Snow,Light Snow,350,2014-02-05 08:53:00
3:53 AM,-0.9,-8.0,72,30.56,6.0,North,18.4,27.6,0.00,,Overcast,350,2014-02-05 09:53:00
4:53 AM,-0.0,-9.0,66,30.58,9.0,North,19.6,-,0.00,,Overcast,350,2014-02-05 10:53:00
5:53 AM,-0.9,-8.0,72,30.59,7.0,North,17.3,-,0.00,,Overcast,350,2014-02-05 11:53:00
6:53 AM,-0.0,-7.1,72,30.61,8.0,NNW,18.4,-,N/A,,Overcast,340,2014-02-05 12:53:00
7:53 AM,-0.0,-7.1,72,30.62,10.0,NNW,17.3,-,N/A,,Overcast,340,2014-02-05 13:53:00
8:31 AM,-0.0,-7.1,72,30.52,6.0,NNW,16.1,-,N/A,Snow,Blowing Snow,330,2014-02-05 14:31:00
8:53 AM,1.0,-7.1,69,30.63,10.0,NNW,17.3,-,N/A,,Overcast,340,2014-02-05 14:53:00
9:53 AM,1.9,-6.0,69,30.64,9.0,NNW,17.3,-,0.00,,Overcast,330,2014-02-05 15:53:00
10:53 AM,3.0,-5.1,69,30.65,2.5,NNW,20.7,-,N/A,Snow,Blowing Snow,330,2014-02-05 16:53:00
11:05 AM,3.0,-5.1,69,30.54,5.0,NNW,18.4,26.5,N/A,,Haze,330,2014-02-05 17:05:00
11:53 AM,3.0,-6.0,66,30.65,9.0,NNW,21.9,26.5,N/A,,Mostly Cloudy,340,2014-02-05 17:53:00
12:53 PM,3.9,-6.0,64,30.64,9.0,NW,17.3,27.6,N/A,,Mostly Cloudy,320,2014-02-05 18:53:00
1:53 PM,3.9,-6.0,64,30.62,4.0,NNW,19.6,26.5,0.00,,Overcast,330,2014-02-05 19:53:00
2:53 PM,3.9,-5.1,66,30.62,5.0,NW,16.1,-,0.00,,Mostly Cloudy,320,2014-02-05 20:53:00
3:53 PM,3.9,-5.1,66,30.64,5.0,NW,17.3,-,0.00,,Overcast,310,2014-02-05 21:53:00
4:53 PM,1.9,-8.0,63,30.65,10.0,NW,16.1,-,0.00,,Mostly Cloudy,310,2014-02-05 22:53:00
5:15 PM,1.9,-4.0,76,30.54,2.5,NW,13.8,-,0.00,,Overcast,320,2014-02-05 23:15:00
5:21 PM,1.0,-6.0,72,30.54,3.0,NW,15.0,-,0.00,,Mostly Cloudy,310,2014-02-05 23:21:00
5:25 PM,-0.0,-7.1,72,30.55,8.0,NW,12.7,-,0.00,,Scattered Clouds,310,2014-02-05 23:25:00
5:53 PM,-2.0,-8.0,76,30.67,10.0,NW,6.9,-,0.00,,Partly Cloudy,320,2014-02-05 23:53:00
6:53 PM,-6.0,-11.9,75,30.67,10.0,WNW,8.1,-,N/A,,Clear,300,2014-02-06 00:53:00
7:53 PM,-6.0,-11.9,75,30.66,10.0,WNW,8.1,-,N/A,,Clear,290,2014-02-06 01:53:00
8:53 PM,-7.1,-13.0,75,30.66,10.0,WNW,9.2,-,N/A,,Clear,300,2014-02-06 02:53:00
9:53 PM,-8.0,-14.1,75,30.66,10.0,WNW,8.1,-,N/A,,Clear,290,2014-02-06 03:53:00
10:53 PM,-11.0,-16.1,78,30.66,10.0,West,9.2,-,N/A,,Clear,280,2014-02-06 04:53:00
11:53 PM,-9.9,-15.0,78,30.64,10.0,West,10.4,-,N/A,,Clear,280,2014-02-06 05:53:00